Back to catalog

STARLINK-37424

AliveCommunicationsVLEO
NORAD 69192·PAYLOAD·🇺🇸 United States

Launched May 25, 2026 from Cape Canaveral Space Force Station

Loading…

Next Passes (next 24 hours)

TLE

FreshSource: CelesTrak SupGP

Epoch: Sep 14, 2026, 15:44 UTC

1 69192C 26114L   26257.65604167  .00039922  00000+0  11793-2 0  2572
2 69192  53.1565 141.1460 0001187  88.8981  49.1521 15.34374742    13

Track STARLINK-37424 in real time with AllMySat

Download on the App Store